FW6724 Weather Reports


Display with metric or nautical units.
time (UTC)temp
F
wind
direction
speed
MPH
gust
MPH
rain 1hr
in
rain 24hr
in
rain mn
in
humidity
%
barometer
mb
20260901063046 76 0 0.0 0.0 0.00 0.00 0.00 63 1019.9
20260901061542 77 0 0.0 0.0 0.00 0.00 0.00 63 1019.6
20260901060045 77 0 0.0 0.0 0.00 0.00 0.00 64 1019.2
20260901054548 77 0 0.0 0.0 0.00 0.00 0.00 64 1018.9
20260901053104 77 0 0.0 4.0 0.00 0.00 0.00 64 1018.6
20260901051547 77 128 3.0 6.0 0.00 0.00 0.00 64 1018.6
20260901050044 77 134 1.0 7.0 0.00 0.00 0.00 64 1018.3
20260901044609 77 0 0.0 0.0 0.00 0.00 0.00 64 1018.3
20260901043043 78 0 0.0 0.0 0.00 0.00 0.00 63 1018.3
20260901041541 78 0 0.0 0.0 0.00 0.00 0.00 63 1018.3
20260901040043 78 0 0.0 0.0 0.00 0.00 0.00 63 1018.3
20260901034551 78 0 0.0 5.0 0.00 0.00 0.00 63 1018.5
20260901033043 78 0 0.0 0.0 0.00 0.00 0.00 63 1018.7
20260901031551 78 0 0.0 3.0 0.00 0.00 0.00 64 1018.6
20260901030042 78 0 0.0 2.0 0.00 0.00 0.00 63 1018.4
20260901024542 78 261 2.0 3.0 0.00 0.00 0.00 63 1018.6
20260901023044 78 261 1.0 4.0 0.00 0.00 0.00 63 1018.8
20260901021602 78 254 2.0 5.0 0.00 0.00 0.00 62 1018.8
20260901020101 78 317 0.0 5.0 0.00 0.00 0.00 62 1019.0
20260901014548 79 0 0.0 0.0 0.00 0.00 0.00 63 1019.4
20260901013044 78 0 0.0 0.0 0.00 0.00 0.00 62 1019.6
20260901011546 78 198 0.0 2.0 0.00 0.00 0.00 62 1019.8
20260901010044 78 0 0.0 0.0 0.00 0.00 0.00 62 1019.8
20260901004546 78 0 0.0 0.0 0.00 0.00 0.00 63 1019.7
20260901003050 79 0 0.0 0.0 0.00 0.00 0.00 63 1019.9
20260901001555 79 0 0.0 0.0 0.00 0.00 0.00 63 1020.3
20260901000050 79 0 0.0 0.0 0.00 0.00 0.00 63 1020.3
20260831234556 79 0 0.0 0.0 0.00 0.00 0.00 63 1020.5
20260831233047 78 0 0.0 0.0 0.00 0.00 0.00 63 1020.5
20260831231543 78 0 0.0 0.0 0.00 0.00 0.00 63 1020.3
20260831230044 78 0 0.0 0.0 0.00 0.00 0.00 64 1020.4
20260831224543 78 0 0.0 0.0 0.00 0.00 0.00 64 1020.3
20260831223044 78 0 0.0 0.0 0.00 0.00 0.00 64 1020.2
20260831221541 78 0 0.0 3.0 0.00 0.00 0.00 64 1020.1
20260831214546 78 0 0.0 0.0 0.00 0.00 0.00 64 1020.2
20260831213042 78 0 0.0 1.0 0.00 0.00 0.00 64 1020.1
20260831211557 78 111 0.0 4.0 0.00 0.00 0.00 64 1020.1
20260831210049 78 94 0.0 3.0 0.00 0.00 0.00 64 1020.1
20260831204538 78 0 1.0 4.0 0.00 0.00 0.00 64 1019.8
20260831203040 79 0 1.0 4.0 0.00 0.00 0.00 65 1019.6
20260831201548 79 89 0.0 4.0 0.00 0.00 0.00 64 1019.3
20260831200044 79 84 1.0 4.0 0.00 0.00 0.00 64 1018.9
20260831194617 79 117 1.0 6.0 0.00 0.00 0.00 64 1018.6
20260831193045 79 89 1.0 6.0 0.00 0.00 0.00 63 1018.3
20260831191542 79 121 3.0 7.0 0.00 0.00 0.00 63 1018.2
20260831190044 80 89 3.0 10.0 0.00 0.00 0.00 62 1018.0
20260831184607 80 90 6.0 10.0 0.00 0.00 0.00 61 1017.8
20260831183053 81 142 4.0 9.0 0.00 0.00 0.00 59 1017.8
20260831181537 82 80 5.0 11.0 0.00 0.00 0.00 58 1017.6
20260831180042 83 124 5.0 10.0 0.00 0.00 0.00 56 1017.6
20260831174549 83 122 4.0 10.0 0.00 0.00 0.00 54 1017.5
20260831173057 84 115 6.0 11.0 0.00 0.00 0.00 51 1017.3
20260831171544 85 132 6.0 12.0 0.00 0.00 0.00 48 1017.1
20260831170042 86 96 6.0 12.0 0.00 0.00 0.00 46 1017.1
20260831164542 86 94 4.0 12.0 0.00 0.00 0.00 43 1017.1
20260831163042 87 119 5.0 10.0 0.00 0.00 0.00 42 1017.2
20260831161546 87 119 5.0 13.0 0.00 0.00 0.00 42 1017.3
20260831160050 87 49 6.0 14.0 0.00 0.00 0.00 42 1017.3
20260831154607 88 92 5.0 16.0 0.00 0.00 0.00 41 1017.4
20260831153044 88 65 7.0 13.0 0.00 0.00 0.00 41 1017.5
20260831151556 88 122 10.0 14.0 0.00 0.00 0.00 43 1017.7
20260831150049 88 80 6.0 13.0 0.00 0.00 0.00 41 1017.7
20260831144554 89 116 4.0 13.0 0.00 0.00 0.00 39 1017.8
20260831143047 89 149 6.0 13.0 0.00 0.00 0.00 40 1017.8
20260831141549 89 80 4.0 14.0 0.00 0.00 0.00 39 1017.9
20260831140044 89 99 5.0 11.0 0.00 0.00 0.00 38 1018.1
20260831134542 89 89 7.0 14.0 0.00 0.00 0.00 38 1018.2
20260831133042 89 69 6.0 13.0 0.00 0.00 0.00 37 1018.2
20260831131546 89 81 6.0 13.0 0.00 0.00 0.00 36 1018.3
20260831130048 88 161 7.0 14.0 0.00 0.00 0.00 38 1018.3
20260831124541 89 88 6.0 13.0 0.00 0.00 0.00 37 1018.5
20260831123048 89 77 4.0 12.0 0.00 0.00 0.00 36 1018.6
20260831121546 89 94 4.0 13.0 0.00 0.00 0.00 34 1018.6
20260831120041 89 113 5.0 11.0 0.00 0.00 0.00 36 1018.7
20260831114543 88 134 6.0 12.0 0.00 0.00 0.00 32 1018.8
20260831113050 88 181 5.0 12.0 0.00 0.00 0.00 33 1018.9
20260831111605 87 129 6.0 12.0 0.00 0.00 0.00 33 1019.0
20260831110104 88 110 5.0 11.0 0.00 0.00 0.00 31 1019.0
20260831104542 87 0 3.0 12.0 0.00 0.00 0.00 30 1019.1
20260831103051 87 107 3.0 10.0 0.00 0.00 0.00 29 1019.3
20260831101547 85 99 4.0 10.0 0.00 0.00 0.00 31 1019.3
20260831100043 85 95 2.0 9.0 0.00 0.00 0.00 31 1019.3
20260831094541 84 61 3.0 7.0 0.00 0.00 0.00 33 1019.3
20260831093045 82 107 4.0 7.0 0.00 0.00 0.00 35 1019.2
20260831091549 81 113 2.0 5.0 0.00 0.00 0.00 37 1019.2
20260831090038 80 135 3.0 8.0 0.00 0.00 0.00 38 1019.2
20260831084551 80 135 3.0 9.0 0.00 0.00 0.00 39 1019.1
20260831083050 79 276 3.0 8.0 0.00 0.00 0.00 35 1018.9
20260831081600 78 290 2.0 5.0 0.00 0.00 0.00 40 1018.6
20260831080041 76 0 1.0 3.0 0.00 0.00 0.00 46 1018.5
20260831074546 75 0 0.0 2.0 0.00 0.00 0.00 48 1018.4
20260831073117 73 0 0.0 0.0 0.00 0.00 0.00 51 1018.3
20260831071545 71 0 0.0 0.0 0.00 0.00 0.00 51 1018.2
20260831070043 69 0 0.0 3.0 0.00 0.00 0.00 53 1018.0
20260831064555 68 0 0.0 0.0 0.00 0.00 0.00 55 1017.7